Back to catalog

ONEWEB-0334

AliveCommunicationsPO
NORAD 49200·PAYLOAD·🇬🇧 United Kingdom

Launched Sep 14, 2021 from Baikonur Cosmodrome

Loading…

Next Passes (next 24 hours)

TLE

FreshSource: CelesTrak SupGP

Epoch: Sep 14, 2026, 11:24 UTC

1 49200C 21083Q   26257.47551340  .00002583  00000+0  63599-2 0  2578
2 49200  87.9141 256.6335 0002215  69.8394  18.9565 13.20771052    19

Track ONEWEB-0334 in real time with AllMySat

Download on the App Store